TimeCDT,TemperatureF,Dew PointF,Humidity,Sea Level PressureIn,VisibilityMPH,Wind Direction,Wind SpeedMPH,Gust SpeedMPH,PrecipitationIn,Events,Conditions,WindDirDegrees,DateUTC
12:34 AM,57.2,53.6,88,30.26,10.0,NNE,6.9,-,N/A,,Mostly Cloudy,30,2013-09-16 05:34:00
12:52 AM,57.2,53.6,88,30.26,10.0,NNE,12.7,-,N/A,,Overcast,30,2013-09-16 05:52:00
12:56 AM,57.0,53.1,87,30.25,8.0,NE,12.7,19.6,N/A,,Overcast,40,2013-09-16 05:56:00
1:18 AM,55.4,51.8,88,30.27,10.0,NNE,11.5,-,N/A,,Overcast,30,2013-09-16 06:18:00
1:48 AM,55.4,51.8,88,30.28,10.0,NNE,10.4,-,0.01,,Overcast,30,2013-09-16 06:48:00
1:56 AM,55.9,51.1,84,30.27,10.0,NE,6.9,-,0.01,,Overcast,40,2013-09-16 06:56:00
2:56 AM,55.0,51.1,86,30.29,10.0,Calm,Calm,-,N/A,,Overcast,0,2013-09-16 07:56:00
3:56 AM,53.1,48.9,86,30.31,10.0,East,10.4,-,N/A,,Overcast,90,2013-09-16 08:56:00
4:31 AM,51.8,44.6,76,30.33,10.0,NE,6.9,-,N/A,,Overcast,50,2013-09-16 09:31:00
4:52 AM,51.8,44.6,76,30.33,10.0,NE,8.1,-,N/A,,Overcast,50,2013-09-16 09:52:00
4:56 AM,52.0,45.0,77,30.32,10.0,ENE,6.9,-,N/A,,Overcast,60,2013-09-16 09:56:00
5:56 AM,50.0,43.0,77,30.35,10.0,ENE,11.5,-,N/A,,Overcast,70,2013-09-16 10:56:00
6:56 AM,48.9,42.1,77,30.38,10.0,NE,6.9,-,N/A,,Mostly Cloudy,40,2013-09-16 11:56:00
7:12 AM,48.2,39.2,71,30.39,10.0,NE,4.6,-,N/A,,Scattered Clouds,40,2013-09-16 12:12:00
7:56 AM,48.9,39.0,69,30.40,10.0,NNE,5.8,-,N/A,,Clear,30,2013-09-16 12:56:00
8:56 AM,50.0,39.9,68,30.40,10.0,East,9.2,-,N/A,,Clear,80,2013-09-16 13:56:00
9:56 AM,53.1,41.0,64,30.41,10.0,East,5.8,-,N/A,,Clear,90,2013-09-16 14:56:00
10:56 AM,55.0,43.0,64,30.40,10.0,East,8.1,-,N/A,,Clear,90,2013-09-16 15:56:00
11:56 AM,59.0,44.1,58,30.40,10.0,ENE,8.1,-,N/A,,Clear,70,2013-09-16 16:56:00
12:56 PM,61.0,44.1,54,30.38,10.0,Variable,3.5,-,N/A,,Clear,0,2013-09-16 17:56:00
1:56 PM,64.0,44.1,48,30.37,10.0,East,6.9,-,N/A,,Clear,90,2013-09-16 18:56:00
2:56 PM,64.9,44.1,47,30.35,10.0,ESE,6.9,-,N/A,,Clear,110,2013-09-16 19:56:00
3:56 PM,64.9,44.1,47,30.32,10.0,East,6.9,-,N/A,,Clear,100,2013-09-16 20:56:00
4:56 PM,66.0,44.1,45,30.32,10.0,NE,5.8,-,N/A,,Clear,50,2013-09-16 21:56:00
5:56 PM,64.0,45.0,50,30.31,10.0,ENE,8.1,-,N/A,,Clear,60,2013-09-16 22:56:00
6:56 PM,59.0,46.9,64,30.31,10.0,NE,4.6,-,N/A,,Clear,50,2013-09-16 23:56:00
7:56 PM,53.1,46.9,80,30.31,10.0,Calm,Calm,-,N/A,,Clear,0,2013-09-17 00:56:00
8:56 PM,50.0,46.9,89,30.32,10.0,Calm,Calm,-,N/A,,Clear,0,2013-09-17 01:56:00
9:56 PM,48.0,45.0,89,30.32,10.0,Calm,Calm,-,N/A,,Clear,0,2013-09-17 02:56:00
10:56 PM,45.0,43.0,93,30.34,10.0,Calm,Calm,-,N/A,,Clear,0,2013-09-17 03:56:00
11:56 PM,46.9,44.1,90,30.34,10.0,ESE,3.5,-,N/A,,Clear,110,2013-09-17 04:56:00